FW2265 Weather Reports


Display with metric or nautical units.
time (UTC)temp
F
wind
direction
speed
MPH
gust
MPH
rain 1hr
in
rain 24hr
in
rain mn
in
humidity
%
barometer
mb
20260831060132 81 202 0.0 0.0 0.00 0.00 0.00 82 1016.4
20260831055232 82 202 0.0 0.0 0.00 0.00 0.00 82 1016.3
20260831054330 82 202 0.0 0.0 0.00 0.00 0.00 81 1016.2
20260831053332 82 202 0.0 0.0 0.00 0.00 0.00 81 1016.3
20260831052333 82 202 0.0 0.0 0.00 0.00 0.00 79 1016.1
20260831051332 83 225 0.0 0.0 0.00 0.00 0.00 79 1016.2
20260831050332 83 225 0.0 1.0 0.00 0.00 0.00 80 1016.1
20260831045333 83 225 0.0 2.0 0.00 0.00 0.00 79 1016.2
20260831044334 83 202 0.0 0.0 0.00 0.00 0.00 78 1016.2
20260831043334 83 202 0.0 0.0 0.00 0.00 0.00 77 1016.1
20260831042333 83 202 0.0 0.0 0.00 0.00 0.00 76 1016.1
20260831041332 83 225 0.0 0.0 0.00 0.00 0.00 77 1016.1
20260831035334 83 225 0.0 0.0 0.00 0.00 0.00 75 1016.0
20260831034432 83 225 0.0 1.0 0.00 0.00 0.00 76 1015.9
20260831031435 84 225 0.0 0.0 0.00 0.00 0.00 74 1015.7
20260831030532 84 225 0.0 0.0 0.00 0.00 0.00 74 1015.7
20260831022536 85 225 0.0 2.0 0.00 0.00 0.00 71 1015.1
20260831021536 85 225 0.0 0.0 0.00 0.00 0.00 71 1014.9
20260831020535 85 225 0.0 0.0 0.00 0.00 0.00 70 1014.9
20260831015632 86 225 0.0 1.0 0.00 0.00 0.00 70 1014.8
20260831014635 86 225 1.0 2.0 0.00 0.00 0.00 69 1014.8
20260831013635 86 223 2.0 4.0 0.00 0.00 0.00 69 1014.8
20260831012635 86 225 0.0 2.0 0.00 0.00 0.00 67 1014.7
20260831011634 87 225 1.0 3.0 0.00 0.00 0.00 65 1014.7
20260831010634 87 207 0.0 0.0 0.00 0.00 0.00 64 1014.5
20260831005632 88 225 0.0 1.0 0.00 0.00 0.00 63 1014.6
20260831003732 88 202 1.0 2.0 0.00 0.00 0.00 61 1014.4
20260831002733 89 213 0.0 0.0 0.00 0.00 0.00 59 1014.3
20260831001832 90 219 0.0 0.0 0.00 0.00 0.00 57 1014.4
20260830234032 92 222 2.0 5.0 0.00 0.00 0.00 53 1014.4
20260830232035 93 144 0.0 0.0 0.00 0.00 0.00 50 1014.5
20260830231035 95 225 0.0 0.0 0.00 0.00 0.00 50 1014.6
20260830224035 94 194 0.0 3.0 0.00 0.00 0.00 53 1014.6
20260830223036 94 192 0.0 0.0 0.00 0.00 0.00 53 1014.3
20260830222033 95 192 0.0 1.0 0.00 0.00 0.00 53 1014.3
20260830221032 94 108 1.0 7.0 0.00 0.00 0.00 55 1014.3
20260830220037 94 3 2.0 3.0 0.00 0.00 0.00 56 1014.3
20260830215034 94 105 0.0 4.0 0.00 0.00 0.00 56 1014.3
20260830214033 94 119 0.0 1.0 0.00 0.00 0.00 55 1014.4
20260830213035 94 149 1.0 5.0 0.00 0.00 0.00 56 1014.4
20260830212033 95 55 1.0 6.0 0.00 0.00 0.00 56 1014.6
20260830211034 96 166 0.0 1.0 0.00 0.00 0.00 54 1014.8
20260830210035 96 20 1.0 5.0 0.00 0.00 0.00 53 1014.9
20260830205033 97 61 0.0 5.0 0.00 0.00 0.00 51 1015.1
20260830204034 97 161 0.0 6.0 0.00 0.00 0.00 52 1015.0
20260830203035 96 195 2.0 4.0 0.00 0.00 0.00 52 1015.2
20260830202032 97 66 1.0 7.0 0.00 0.00 0.00 51 1015.3
20260830201034 97 198 0.0 2.0 0.00 0.00 0.00 52 1015.3
20260830200036 98 77 1.0 5.0 0.00 0.00 0.00 52 1015.5
20260830193033 98 144 0.0 0.0 0.00 0.00 0.00 51 1016.0
20260830191035 98 1 3.0 5.0 0.00 0.00 0.00 51 1016.3
20260830190034 98 235 0.0 2.0 0.00 0.00 0.00 49 1016.4
20260830185033 98 70 0.0 2.0 0.00 0.00 0.00 49 1016.5
20260830183131 97 202 0.0 0.0 0.00 0.00 0.00 48 1016.8
20260830182134 98 225 1.0 1.0 0.00 0.00 0.00 46 1016.8
20260830181134 97 329 0.0 0.0 0.00 0.00 0.00 46 1017.1
20260830180233 97 180 0.0 0.0 0.00 0.00 0.00 47 1017.3
20260830175233 97 225 0.0 0.0 0.00 0.00 0.00 48 1017.4
20260830174235 97 62 0.0 1.0 0.00 0.00 0.00 48 1017.6
20260830172231 96 225 1.0 2.0 0.00 0.00 0.00 50 1017.8
20260830172132 96 225 2.0 4.0 0.00 0.00 0.00 50 1017.8
20260830171134 96 157 0.0 0.0 0.00 0.00 0.00 52 1017.9
20260830170133 96 219 2.0 5.0 0.00 0.00 0.00 54 1017.8
20260830165133 94 202 0.0 1.0 0.00 0.00 0.00 55 1017.8
20260830165033 94 185 0.0 1.0 0.00 0.00 0.00 56 1017.8
20260830164033 93 132 0.0 0.0 0.00 0.00 0.00 60 1017.9
20260830163033 91 218 0.0 0.0 0.00 0.00 0.00 63 1017.9
20260830162033 90 225 0.0 1.0 0.00 0.00 0.00 65 1018.0
20260830161034 89 225 0.0 0.0 0.00 0.00 0.00 66 1018.0
20260830160037 89 225 0.0 2.0 0.00 0.00 0.00 67 1018.1
20260830155035 89 180 0.0 0.0 0.00 0.00 0.00 67 1017.8
20260830154133 89 202 0.0 0.0 0.00 0.00 0.00 66 1018.0
20260830153134 89 202 0.0 0.0 0.00 0.00 0.00 67 1018.0
20260830153034 89 202 0.0 1.0 0.00 0.00 0.00 67 1018.0
20260830152033 89 194 0.0 1.0 0.00 0.00 0.00 69 1018.1
20260830151033 88 225 0.0 0.0 0.00 0.00 0.00 71 1018.1
20260830150033 87 225 0.0 0.0 0.00 0.00 0.00 73 1018.1
20260830145033 86 180 0.0 0.0 0.00 0.00 0.00 75 1018.2
20260830144033 86 180 0.0 0.0 0.00 0.00 0.00 78 1018.1
20260830143036 85 180 0.0 0.0 0.00 0.00 0.00 79 1018.2
20260830142033 85 180 0.0 0.0 0.00 0.00 0.00 80 1018.1
20260830141934 85 183 0.0 0.0 0.00 0.00 0.00 81 1018.1
20260830140933 84 225 0.0 0.0 0.00 0.00 0.00 81 1018.1
20260830140833 84 225 0.0 0.0 0.00 0.00 0.00 81 1018.1
20260830135833 84 225 0.0 0.0 0.00 0.00 0.00 84 1018.0
20260830135734 84 225 0.0 1.0 0.00 0.00 0.00 83 1018.1
20260830133834 81 225 0.0 0.0 0.00 0.00 0.00 89 1017.8
20260830132833 80 225 0.0 0.0 0.00 0.00 0.00 93 1017.7
20260830131834 79 225 0.0 0.0 0.00 0.00 0.00 95 1017.6
20260830130834 78 225 0.0 0.0 0.00 0.00 0.00 95 1017.4
20260830125834 77 225 0.0 0.0 0.00 0.00 0.00 96 1017.5
20260830124833 76 225 0.0 0.0 0.00 0.00 0.00 96 1017.4
20260830123833 76 225 0.0 0.0 0.00 0.00 0.00 96 1017.3
20260830122835 76 225 0.0 0.0 0.00 0.00 0.00 96 1017.2
20260830121834 76 225 0.0 0.0 0.00 0.00 0.00 95 1017.2
20260830114834 76 225 0.0 0.0 0.00 0.00 0.00 94 1017.2
20260830113835 76 225 0.0 0.0 0.00 0.00 0.00 95 1017.1
20260830112832 76 225 0.0 0.0 0.00 0.00 0.00 95 1017.1
20260830111834 76 225 0.0 0.0 0.00 0.00 0.00 94 1017.0
20260830110833 76 225 0.0 0.0 0.00 0.00 0.00 94 1017.0
20260830105833 76 225 0.0 0.0 0.00 0.00 0.00 94 1016.9
20260830105733 76 225 0.0 0.0 0.00 0.00 0.00 93 1016.9
20260830104734 76 225 0.0 0.0 0.00 0.00 0.00 94 1016.9
20260830103833 76 225 0.0 0.0 0.00 0.00 0.00 93 1016.9
20260830102833 76 225 0.0 0.0 0.00 0.00 0.00 94 1016.8
20260830101833 76 225 0.0 0.0 0.00 0.00 0.00 93 1016.9
20260830095833 76 225 0.0 0.0 0.00 0.00 0.00 94 1016.6
20260830094832 77 225 0.0 0.0 0.00 0.00 0.00 93 1016.6
20260830093833 77 225 0.0 0.0 0.00 0.00 0.00 93 1016.6
20260830091834 77 225 0.0 0.0 0.00 0.00 0.00 91 1016.5
20260830090932 77 225 0.0 0.0 0.00 0.00 0.00 92 1016.5
20260830085933 77 225 0.0 0.0 0.00 0.00 0.00 90 1016.4
20260830085833 77 225 0.0 0.0 0.00 0.00 0.00 90 1016.5
20260830084833 77 225 0.0 0.0 0.00 0.00 0.00 91 1016.6
20260830083832 77 225 0.0 0.0 0.00 0.00 0.00 90 1016.6
20260830082833 77 225 0.0 0.0 0.00 0.00 0.00 90 1016.7
20260830081833 77 225 0.0 0.0 0.00 0.00 0.00 90 1016.6
20260830075833 78 225 0.0 0.0 0.00 0.00 0.00 87 1016.8
20260830074833 78 225 0.0 0.0 0.00 0.00 0.00 87 1016.8
20260830073832 78 225 0.0 0.0 0.00 0.00 0.00 88 1016.8
20260830072932 79 225 0.0 0.0 0.00 0.00 0.00 87 1016.9
20260830071933 79 225 0.0 0.0 0.00 0.00 0.00 86 1016.8
20260830071032 79 225 0.0 0.0 0.00 0.00 0.00 85 1016.9
20260830070035 80 225 0.0 0.0 0.00 0.00 0.00 86 1016.9
20260830065035 80 225 0.0 0.0 0.00 0.00 0.00 86 1016.8
20260830064034 80 225 0.0 0.0 0.00 0.00 0.00 85 1016.6
20260830063131 80 225 0.0 0.0 0.00 0.00 0.00 85 1016.8
20260830062135 80 225 1.0 1.0 0.00 0.00 0.00 86 1016.6
20260830061134 81 225 0.0 1.0 0.00 0.00 0.00 85 1016.8